Regional Weather Roundup
Issued by NWS Goodland, KS

Home | Current Version | Previous Version | Text Only | Print | Product List | Glossary Off
Versions: 1 2 3 4 5 6 7 8 9 10 11 12 13 14 15 16 17 18 19 20 21 22 23 24 25 26 27 28 29 30 31 32 33 34 35 36 37 38 39 40 41 42 43 44 45 46 47 48 49 50

000
ASUS43 KGLD 191559
RWRGLD

GOODLAND FORECAST AREA HOURLY WEATHER ROUNDUP
NATIONAL WEATHER SERVICE GOODLAND KS
900 AM MST FRI DEC 19 2014

...OFFICIAL OBSERVATIONS...

CITY           SKY/WX    TMP DP  RH WIND       PRES   REMARKS
GOODLAND KS    CLOUDY    32  27  81 W10       30.14R
HILL CITY KS   FOG       29  28  96 W3        30.17R VSB 1/4
IMPERIAL NEB   SUNNY     23  19  85 W3        30.11R
MCCOOK NEB     SUNNY     22  20  92 SW7       30.13S FOG
AKRON CO       MOSUNNY   23  20  88 SW15      30.10R WCI  10
BURLINGTON CO  CLOUDY    30  24  78 W8        30.13R
LIMON CO       SUNNY     27  23  85 NW6       30.11S
$$

...UNOFFICIAL OBSERVATIONS...

CITY           SKY/WX    TMP DP  RH WIND       PRES   REMARKS
COLBY KS       SUNNY     32  32 100 W5        30.14R
GOVE KS          N/A     26  32 100 MISG        N/A
NORTON KS      CLOUDY    28  27  93 SW5       30.14S FOG
SHARON SPRINGS   N/A     35  32  90 CALM        N/A
TRIBUNE KS     SUNNY     37  34  87 W3        30.15R
KIT CARSON CO    N/A     32  27  81 MISG        N/A
YUMA CO          N/A     26  21  80 W12         N/A  WCI  16
$$



USA.gov is the U.S. government's official web portal to all federal, state and local government web resources and services.